Find Starlink 31532

NORAD ID: 59349 Int'l Des: 2024-060 Owner: SPXS Country: US Constellation: starlink operational
LEOCIRCULAR

当前视图

正在加载3D地球...

About Starlink 31532

Starlink 31532 (NORAD 59349) is a starlink constellation satellite (v2 mini) launched Mar 31, 2024 by SPXS of US. It operates in LEO, CIRCULAR orbit with a mass of 730.00 kg.

即将过境

Passes for default location (London). Set your location on the main map for personalized predictions.

高度历史

Loading altitude history...

两行轨道根数

1 59349U 24060B 26228.30347367 .00000619 00000-0 32002-4 0 9992
2 59349 43.0041 78.4488 0000876 279.8655 80.2098 15.27578774134521
Epoch: Aug 16, 2026 • Age: 24 hours

当前状态

高度 484.0 km
远地点 / 近地点 N/A
速度 7.63 km/s
星下点 30.66°N, 40.9°E
发射日期 Mar 31, 2024
运行时间 2.3 years
类型 internet

技术详情

分类 Payload
质量 730.00 kg
干质量 700.00 kg
总质量 730.00 kg
长度 0.30 m
直径 4.10 m
跨度 29.00 m
形状 Box + pan
制造商 SPXS
平台类型 Starlink V2M
阶段状态 In Orbit
所有者/国家 SPXS/US

Most Searched